Weather History for KTQH - January, 2013

Change the Weather History Date:

Saturday, January 19, 2013

  Actual Average (KMKO) Record (KMKO)
Temperature  
Mean Temperature 47 °F -  
Max Temperature 62 °F 47 °F 71 °F (2006)
Min Temperature 32 °F 27 °F 16 °F (2008)
Degree Days  
Heating Degree Days 18    
Moisture  
Dew Point 32 °F    
Average Humidity 62    
Maximum Humidity 100    
Minimum Humidity 34    
Precipitation  
Precipitation 0.11 in - - ()
Sea Level Pressure  
Sea Level Pressure 30.18 in    
Wind  
Wind Speed 4 mph (SSW)    
Max Wind Speed 15 mph    
Max Gust Speed 20 mph    
Visibility 10 miles    
Events      
Averages and records for this station are not official NWS values.
T = Trace of Precipitation, MM = Missing Value Source: NWS Daily Summary

Daily Weather History Graph

Daily Weather History Graph

Search for Another Location

Airport or City:

Trip Planner

Search our weather history database for the weather conditions in past years. The results will help you decide how hot, cold, wet, or windy it might be!

Date:

Astronomy

Jan. 19, 2013 Rise Set
Actual Time 7:28 AM CST 5:33 PM CST
Civil Twilight 7:00 AM CST 6:01 PM CST
Nautical Twilight 6:29 AM CST 6:32 PM CST
Astronomical Twilight 5:58 AM CST 7:03 PM CST
Moon 11:58 AM CST (1/19) 1:06 AM CST (1/19)
Length of Visible Light 11h 00m
Length of Day
10h 05m
First Quarter, 57% of the Moon is Illuminated
Jan 19
First Quarter
Jan 26
Full
Feb 3
Last Quarter
Feb 10
New
Feb 17
First Quarter

Hourly Weather History & Observations

Time (CST) Temp. Windchill Dew Point Humidity Pressure Visibility Wind Dir Wind Speed Gust Speed Precip Events Conditions
12:15 AM 39.2 °F - 30.2 °F 70% 30.24 in 10.0 mi Calm Calm - N/A   Clear
12:35 AM 39.2 °F - 30.2 °F 70% 30.23 in 10.0 mi Calm Calm - N/A   Clear
12:55 AM 41.0 °F 37.1 °F 30.2 °F 65% 30.23 in 10.0 mi SSE 5.8 mph - N/A   Clear
1:15 AM 41.0 °F 36.4 °F 30.2 °F 65% 30.22 in 10.0 mi SSE 6.9 mph - N/A   Clear
1:35 AM 41.0 °F 35.8 °F 30.2 °F 65% 30.22 in 10.0 mi South 8.1 mph - N/A   Clear
1:55 AM 41.0 °F 36.4 °F 30.2 °F 65% 30.22 in 10.0 mi SSE 6.9 mph - N/A   Clear
2:15 AM 41.0 °F 39.0 °F 30.2 °F 65% 30.22 in 10.0 mi SSE 3.5 mph - N/A   Clear
2:35 AM 41.0 °F - 30.2 °F 65% 30.22 in 10.0 mi Calm Calm - N/A   Clear
2:55 AM 39.2 °F 37.0 °F 30.2 °F 70% 30.21 in 10.0 mi South 3.5 mph - N/A   Clear
3:15 AM 41.0 °F 39.0 °F 30.2 °F 65% 30.20 in 10.0 mi South 3.5 mph - N/A   Clear
3:35 AM 41.0 °F 38.0 °F 30.2 °F 65% 30.20 in 10.0 mi South 4.6 mph - N/A   Clear
3:55 AM 41.0 °F - 30.2 °F 65% 30.19 in 10.0 mi Calm Calm - N/A   Clear
4:15 AM 41.0 °F - 30.2 °F 65% 30.19 in 10.0 mi Calm Calm - N/A   Clear
4:35 AM 41.0 °F - 30.2 °F 65% 30.19 in 10.0 mi Calm Calm - N/A   Clear
4:55 AM 39.2 °F 37.0 °F 30.2 °F 70% 30.18 in 10.0 mi South 3.5 mph - N/A   Clear
5:15 AM 39.2 °F - 30.2 °F 70% 30.18 in 10.0 mi Calm Calm - N/A   Clear
5:35 AM 39.2 °F 37.0 °F 30.2 °F 70% 30.18 in 10.0 mi South 3.5 mph - N/A   Clear
5:55 AM 39.2 °F 35.9 °F 32.0 °F 75% 30.17 in 10.0 mi South 4.6 mph - N/A   Clear
7:15 AM 41.0 °F 39.0 °F 32.0 °F 70% 30.18 in 10.0 mi South 3.5 mph - N/A   Clear
7:55 AM 39.2 °F - 32.0 °F 75% 30.19 in 10.0 mi Calm Calm - N/A   Clear
8:35 AM 42.8 °F 41.1 °F 32.0 °F 66% 30.19 in 10.0 mi South 3.5 mph - N/A   Clear
9:55 AM 50.0 °F - 33.8 °F 54% 30.20 in 10.0 mi SSW 6.9 mph - N/A   Clear
10:15 AM 51.8 °F - 33.8 °F 50% 30.21 in 10.0 mi SSW 5.8 mph - N/A   Clear
10:35 AM 51.8 °F - 33.8 °F 50% 30.21 in 10.0 mi SSW 9.2 mph - N/A   Clear
11:15 AM 55.4 °F - 33.8 °F 44% 30.20 in 10.0 mi SSW 8.1 mph - N/A   Clear
11:35 AM 55.4 °F - 33.8 °F 44% 30.19 in 10.0 mi SSW 10.4 mph 19.6 mph N/A   Clear
11:55 AM 57.2 °F - 35.6 °F 44% 30.17 in 10.0 mi SSW 9.2 mph - N/A   Clear
12:15 PM 59.0 °F - 35.6 °F 42% 30.16 in 10.0 mi SSW 6.9 mph 17.3 mph N/A   Clear
12:35 PM - - - N/A% - - North - - N/A   Unknown
12:55 PM 59.0 °F - 33.8 °F 39% 30.14 in 0.2 mi SW 15.0 mph 18.4 mph 0.05 in   Haze
1:35 PM 60.8 °F - 33.8 °F 36% 30.12 in 10.0 mi SW 12.7 mph - 0.06 in   Clear
1:55 PM 60.8 °F - 33.8 °F 36% 30.12 in 10.0 mi SW 9.2 mph - 0.06 in   Clear
2:15 PM 60.8 °F - 35.6 °F 39% 30.11 in 10.0 mi SSW 9.2 mph - N/A   Clear
2:35 PM 60.8 °F - 33.8 °F 36% 30.11 in 10.0 mi SW 10.4 mph 16.1 mph N/A   Clear
2:55 PM 62.6 °F - 33.8 °F 34% 30.10 in 10.0 mi SSW 11.5 mph - N/A   Clear
3:15 PM 62.6 °F - 33.8 °F 34% 30.10 in 10.0 mi SSW 12.7 mph 16.1 mph N/A   Clear
3:35 PM 62.6 °F - 33.8 °F 34% 30.11 in 10.0 mi SSW 9.2 mph 16.1 mph N/A   Clear
3:55 PM 62.6 °F - 33.8 °F 34% 30.11 in 10.0 mi SW 10.4 mph - N/A   Clear
4:15 PM 60.8 °F - 33.8 °F 36% 30.11 in 10.0 mi SW 11.5 mph - N/A   Clear
4:35 PM 60.8 °F - 33.8 °F 36% 30.12 in 10.0 mi SW 8.1 mph - N/A   Clear
4:55 PM 59.0 °F - 33.8 °F 39% 30.12 in 10.0 mi WSW 5.8 mph - N/A   Clear
5:15 PM 59.0 °F - 33.8 °F 39% 30.13 in 10.0 mi SW 4.6 mph - N/A   Clear
5:35 PM 55.4 °F - 35.6 °F 47% 30.13 in 10.0 mi SW 3.5 mph - N/A   Clear
5:55 PM 53.6 °F - 33.8 °F 47% 30.13 in 10.0 mi Calm Calm - N/A   Clear
6:15 PM 51.8 °F - 33.8 °F 50% 30.14 in 10.0 mi Calm Calm - N/A   Clear
6:35 PM 46.4 °F - 33.8 °F 62% 30.15 in 10.0 mi Calm Calm - N/A   Clear
6:55 PM 42.8 °F - 33.8 °F 70% 30.16 in 10.0 mi Calm Calm - N/A   Clear
7:15 PM 39.2 °F - 33.8 °F 81% 30.17 in 10.0 mi Calm Calm - N/A   Clear
7:35 PM 41.0 °F - 33.8 °F 76% 30.18 in 10.0 mi Calm Calm - N/A   Clear
7:55 PM 39.2 °F - 33.8 °F 81% 30.19 in 10.0 mi Calm Calm - N/A   Clear
8:15 PM 39.2 °F - 33.8 °F 81% 30.19 in 10.0 mi Calm Calm - N/A   Clear
8:35 PM 35.6 °F - 32.0 °F 87% 30.19 in 10.0 mi Calm Calm - N/A   Clear
8:55 PM 35.6 °F - 32.0 °F 87% 30.20 in 10.0 mi Calm Calm - N/A   Clear
9:15 PM 35.6 °F - 32.0 °F 87% 30.19 in 10.0 mi Calm Calm - N/A   Clear
9:35 PM 35.6 °F - 32.0 °F 87% 30.20 in 10.0 mi Calm Calm - N/A   Clear
9:55 PM 35.6 °F - 32.0 °F 87% 30.20 in 10.0 mi Calm Calm - N/A   Clear
10:15 PM 35.6 °F - 32.0 °F 87% 30.20 in 10.0 mi Calm Calm - N/A   Clear
10:35 PM 35.6 °F - 32.0 °F 87% 30.21 in 10.0 mi Calm Calm - N/A   Clear
10:55 PM 35.6 °F - 32.0 °F 87% 30.21 in 10.0 mi Calm Calm - N/A   Clear
11:15 PM 33.8 °F - 32.0 °F 93% 30.21 in 10.0 mi Calm Calm - N/A   Clear
11:35 PM 32.0 °F - 32.0 °F 100% 30.22 in 10.0 mi Calm Calm - N/A   Clear
11:55 PM 33.8 °F - 32.0 °F 93% 30.21 in 10.0 mi Calm Calm - N/A   Clear